Flag for U.S.A. Weather past 2 weeks in Passaic, New Jersey, U.S.A.

Now
58 °F

Sunny.


Feels Like: 55 °F
Forecast: 37 / 59 °F
Wind: 13 mph from Southwest

Location: Teterboro Airport

Current Time: Oct 20, 2014 at 2:35:41 PM

Latest Report: Oct 20, 2014 at 1:51 PM


Visibility: 10 mi

Pressure: 30.02 "Hg

Humidity: 39%

Dew point: 33 °F

Location of PassaicLocation

Historic Weather in Passaic — Graph

°F

Passaic temperature yesterday

Maximum temperature yesterday: 56 °F (at 12:51 AM)
Minimum temperature yesterday: 42 °F (at 10:51 PM)
Average temperature yesterday: 51 °F

Past Weeks' High & Low Weather Summary

 TemperatureHumidityPressure
High81 °F (Oct 15, 11:51 AM)94% (Oct 14, 2:58 AM)30.33 "Hg (Oct 14, 2:58 AM)
Low38 °F (Oct 20, 2:51 AM)27% (Oct 9, 12:51 PM)29.56 "Hg (Oct 18, 1:51 PM)
Average61 °F63%29.97 "Hg
* Reported Oct 5 12:51 PM — Oct 20 12:51 PM, Passaic, Weather by CustomWeather, © 2014

Note: Actual official high and low records may vary slightly from our data, if they occured in-between our weather recording intervals... More about our weather records

Advertising

Passaic weather history for previous 24 hours

 ConditionsComfort  
Time TempWeatherWind HumidityBarometerVisibility
12:51 PM
Oct 20
56 °FSunny.13 mph40%30.05 "Hg10 mi
11:51 AM51 °FPassing clouds.10 mph46%30.08 "Hg10 mi
10:51 AM50 °FSunny.10 mph44%30.11 "Hg10 mi
9:51 AM48 °FSunny.7 mph48%30.11 "Hg10 mi
8:51 AM45 °FSunny.6 mph58%30.12 "Hg10 mi
8:01 AM39 °FClear.3 mph70%30.11 "Hg10 mi
7:56 AM39 °FClear.No wind70%30.11 "Hg10 mi
6:51 AM39 °FClear.No wind67%30.09 "Hg10 mi
5:51 AM39 °FClear.No wind67%30.09 "Hg10 mi
4:51 AM40 °FClear.6 mph63%30.09 "Hg10 mi
3:51 AM39 °FClear.6 mph65%30.07 "Hg10 mi
2:51 AM38 °FClear.5 mph68%30.08 "Hg10 mi
1:51 AM41 °FClear.No wind55%30.06 "Hg10 mi
12:51 AM42 °FClear.5 mph53%30.06 "Hg10 mi
10:51 PM
Oct 19
42 °FClear.6 mph53%30.06 "Hg10 mi
9:51 PM43 °FClear.6 mph51%30.06 "Hg10 mi
8:51 PM44 °FClear.8 mph49%30.05 "Hg10 mi
7:51 PM46 °FClear.9 mph46%30.03 "Hg10 mi
6:51 PM48 °FSunny.16 mph43%30.01 "Hg10 mi
5:51 PM49 °FSunny.13 mph39%29.98 "Hg10 mi
4:51 PM52 °FSunny.14 mph35%29.96 "Hg10 mi
3:51 PM53 °FSunny.18 mph34%29.93 "Hg10 mi
2:51 PM53 °FSunny.15 mph34%29.91 "Hg10 mi
Weather by CustomWeather, © 2014

See weather overviewHow to use our weather pages